Change the Weather History Date:

Friday, October 4, 2013

  Actual Average Record
Temperature  
Mean Temperature 80 °F -  
Max Temperature 89 °F 74 °F 89 °F (2013)
Min Temperature 71 °F 57 °F 57 °F (1996)
Cooling Degree Days 15    
Growing Degree Days 30 (Base 50)    
Moisture  
Dew Point 68 °F    
Average Humidity 72    
Maximum Humidity 94    
Minimum Humidity 31    
Precipitation  
Precipitation 0.00 in - - ()
Sea Level Pressure  
Sea Level Pressure 29.96 in    
Wind  
Wind Speed 6 mph ()    
Max Wind Speed 17 mph    
Max Gust Speed 22 mph    
Visibility 6.5 miles    
Events      
Averages and records for this station are not official NWS values.
T = Trace of Precipitation, MM = Missing Value Source: Averaged Metar Reports

Daily Weather History Graph

Daily Weather History Graph

Search for Another Location

Airport or City:

Trip Planner

Search our weather history database for the weather conditions in past years. The results will help you decide how hot, cold, wet, or windy it might be!

Date:

Astronomy

Oct. 04, 2013 Rise Set
Actual Time 8:00 AM CEST 7:40 PM CEST
Civil Twilight 7:34 AM CEST 8:06 PM CEST
Nautical Twilight 7:03 AM CEST 8:37 PM CEST
Astronomical Twilight 6:32 AM CEST 9:08 PM CEST
Moon 7:20 AM CEST (10/4) 7:14 PM CEST (10/4)
Length of Visible Light 12h 32m
Length of Day
11h 39m
Waning Crescent, 0% of the Moon is Illuminated
Oct 4
Waning Crescent
Oct 5
New
Oct 12
First Quarter
Oct 19
Full
Oct 27
Last Quarter

Hourly Weather History & Observations

Time (CEST) Temp. Heat Index Dew Point Humidity Pressure Visibility Wind Dir Wind Speed Gust Speed Precip Events Conditions
12:00 AM 75.2 °F - 69.8 °F 83% 29.95 in 6.2 mi WSW 9.2 mph - N/A   Partly Cloudy
12:30 AM 75.2 °F - 69.8 °F 83% 29.95 in 6.2 mi West 8.1 mph - N/A   Partly Cloudy
1:00 AM 75.2 °F - 69.8 °F 83% 29.95 in 6.2 mi West 6.9 mph - N/A   Partly Cloudy
1:30 AM 75.2 °F - 69.8 °F 83% 29.95 in 6.2 mi West 3.5 mph - N/A   Partly Cloudy
2:00 AM 76 °F - 66 °F 63% 29.95 in 9 mi WNW 2.3 mph - -   Scattered Clouds
2:00 AM 75.2 °F - 68.0 °F 78% 29.95 in 6.2 mi Variable 2.3 mph - N/A   Partly Cloudy
2:30 AM 75.2 °F - 66.2 °F 73% 29.92 in 6.2 mi WNW 4.6 mph - N/A   Partly Cloudy
3:00 AM 73.4 °F - 66.2 °F 78% 29.92 in 6.2 mi Variable 1.2 mph - N/A   Partly Cloudy
3:30 AM 75.2 °F - 66.2 °F 73% 29.92 in 6.2 mi West 3.5 mph - N/A   Partly Cloudy
4:00 AM 73.4 °F - 66.2 °F 78% 29.92 in 6.2 mi Variable 2.3 mph - N/A   Partly Cloudy
4:30 AM 73.4 °F - 66.2 °F 78% 29.92 in 6.2 mi Variable 2.3 mph - N/A   Partly Cloudy
5:00 AM 73.4 °F - 66.2 °F 78% 29.92 in 6.2 mi SW 3.5 mph - N/A   Partly Cloudy
5:30 AM 73.4 °F - 66.2 °F 78% 29.92 in 6.2 mi SSW 4.6 mph - N/A   Partly Cloudy
6:30 AM 71.6 °F - 68.0 °F 88% 29.92 in 6.2 mi Variable 2.3 mph - N/A   Partly Cloudy
7:00 AM 71.6 °F - 68.0 °F 88% 29.92 in 6.2 mi SSW 3.5 mph - N/A   Partly Cloudy
7:30 AM 71.6 °F - 68.0 °F 88% 29.95 in 6.2 mi Variable 2.3 mph - N/A   Partly Cloudy
8:00 AM 71.6 °F - 68.0 °F 88% 29.95 in 6.2 mi SW 4.6 mph - N/A   Partly Cloudy
8:30 AM 71.6 °F - 68.0 °F 88% 29.95 in - WSW 3.5 mph - N/A   Clear
9:00 AM 71.6 °F - 68.0 °F 88% 29.95 in - West 3.5 mph - N/A   Clear
9:30 AM 75.2 °F - 68.0 °F 78% 29.98 in - WSW 5.8 mph - N/A   Clear
10:00 AM 77.0 °F - 68.0 °F 74% 29.98 in - WSW 6.9 mph - N/A   Clear
10:30 AM 78.8 °F - 66.2 °F 65% 29.98 in - WSW 8.1 mph - N/A   Clear
11:00 AM 80.6 °F 82.7 °F 66.2 °F 61% 29.98 in 6.2 mi West 4.6 mph - N/A   Partly Cloudy
11:30 AM 80.6 °F 82.7 °F 66.2 °F 61% 29.98 in 6.2 mi WSW 6.9 mph - N/A   Partly Cloudy
12:00 PM 82.4 °F 84.6 °F 66.2 °F 58% 30.01 in 6.2 mi SSW 8.1 mph - N/A   Partly Cloudy
12:30 PM 84.2 °F 86.6 °F 66.2 °F 55% 29.98 in 6.2 mi SSW 8.1 mph - N/A   Partly Cloudy
1:00 PM 86.0 °F 88.2 °F 66.2 °F 51% 29.98 in 6.2 mi SSW 9.2 mph - N/A   Partly Cloudy
1:30 PM 86.0 °F 87.3 °F 64.4 °F 48% 29.98 in 6.2 mi SW 11.5 mph - N/A   Partly Cloudy
2:00 PM 89 °F - 62 °F 31% 29.97 in 9 mi SSW 10.4 mph - -   Scattered Clouds
2:00 PM 87.8 °F 88.5 °F 62.6 °F 43% 29.98 in 6.2 mi SSW 9.2 mph 21.9 mph N/A   Partly Cloudy
2:30 PM 86.0 °F 89.4 °F 68.0 °F 55% 29.95 in 6.2 mi South 12.7 mph - N/A   Partly Cloudy
3:00 PM 84.2 °F 88.4 °F 69.8 °F 62% 29.95 in 6.2 mi South 16.1 mph - N/A   Partly Cloudy
3:30 PM 82.4 °F 86.3 °F 69.8 °F 66% 29.95 in 6.2 mi South 17.3 mph - N/A   Partly Cloudy
4:00 PM 84.2 °F 88.4 °F 69.8 °F 62% 29.95 in 6.2 mi South 15.0 mph - N/A   Partly Cloudy
4:30 PM 80.6 °F 83.9 °F 69.8 °F 70% 29.95 in 6.2 mi South 16.1 mph - N/A   Partly Cloudy
5:00 PM 82.4 °F 86.3 °F 69.8 °F 66% 29.92 in - South 16.1 mph - N/A   Clear
5:30 PM 82.4 °F 86.3 °F 69.8 °F 66% 29.95 in - South 12.7 mph - N/A   Clear
6:00 PM 82.4 °F 86.3 °F 69.8 °F 66% 29.95 in 6.2 mi South 10.4 mph - N/A   Partly Cloudy
6:30 PM 80.6 °F 83.9 °F 69.8 °F 70% 29.95 in 6.2 mi South 8.1 mph - N/A   Partly Cloudy
7:00 PM 80.6 °F 83.9 °F 69.8 °F 70% 29.98 in 6.2 mi SSE 4.6 mph - N/A   Partly Cloudy
7:30 PM 80.6 °F 83.9 °F 69.8 °F 70% 29.98 in 6.2 mi Calm Calm - N/A   Partly Cloudy
8:00 PM 80 °F - 68 °F 59% 29.99 in 12 mi SSE 3.5 mph - -   Scattered Clouds
8:00 PM 78.8 °F - 69.8 °F 74% 29.98 in 6.2 mi Variable 2.3 mph - N/A   Partly Cloudy
8:30 PM 78.8 °F - 69.8 °F 74% 30.01 in 6.2 mi Calm Calm - N/A   Partly Cloudy
9:00 PM 78.8 °F - 69.8 °F 74% 30.01 in 6.2 mi Variable 2.3 mph - N/A   Partly Cloudy
9:30 PM 78.8 °F - 69.8 °F 74% 30.01 in 6.2 mi Variable 1.2 mph - N/A   Partly Cloudy
10:00 PM 75.2 °F - 71.6 °F 89% 30.04 in 6.2 mi Variable 1.2 mph - N/A   Partly Cloudy
11:00 PM 75.2 °F - 73.4 °F 94% 30.04 in 6.2 mi Variable 2.3 mph - N/A   Partly Cloudy
11:30 PM 75.2 °F - 73.4 °F 94% 30.06 in 6.2 mi Variable 1.2 mph - N/A   Partly Cloudy